When you browse on this site, cookies collect data to enhance your experience and personalize the content and advertising you see.
Visit our Privacy Policy to learn more. By continuing to use the site, you agree to this use of cookies and data.
  • en France
  • Liste des pays
  • À 7 jours
  • Température de l'eau
  • Carte satellitaire
  • Carte météo
  • Widgets météo
  • user-avatar
    Se connecter

    Météo par heure à Nice

    Ce jour, 24 Janvier, Jeudi

    Heure Température Précipitation Vent Pression Humidité
    00:00 +4°C° 0 mm 7 m/s 740 mmHg 40%
    01:00 +3°C° 0.1 mm 7 m/s 740 mmHg 41%
    02:00 +3°C° 0.1 mm 6 m/s 741 mmHg 41%
    03:00 +3°C° 0.1 mm 6 m/s 741 mmHg 42%
    04:00 +4°C° 0.1 mm 6 m/s 741 mmHg 42%
    05:00 +4°C° 0.1 mm 6 m/s 742 mmHg 43%
    06:00 +4°C° 0.1 mm 6 m/s 742 mmHg 43%
    07:00 +5°C° 0.1 mm 6 m/s 743 mmHg 42%
    08:00 +7°C° 0.1 mm 5 m/s 744 mmHg 41%
    09:00 +7°C° 0.1 mm 5 m/s 744 mmHg 40%
    10:00 +10°C° 0 mm 4 m/s 744 mmHg 37%
    11:00 +11°C° 0 mm 3 m/s 745 mmHg 33%
    12:00 +12°C° 0 mm 3 m/s 745 mmHg 30%
    13:00 +13°C° 0 mm 2 m/s 745 mmHg 31%
    14:00 +13°C° 0 mm 2 m/s 746 mmHg 33%
    15:00 +13°C° 0 mm 2 m/s 746 mmHg 34%
    16:00 +10°C° 0 mm 2 m/s 747 mmHg 38%
    17:00 +9°C° 0 mm 2 m/s 747 mmHg 43%
    18:00 +8°C° 0 mm 1 m/s 748 mmHg 47%
    19:00 +7°C° 0 mm 2 m/s 748 mmHg 47%
    20:00 +7°C° 0 mm 2 m/s 749 mmHg 47%
    21:00 +6°C° 0 mm 2 m/s 749 mmHg 47%
    22:00 +6°C° 0 mm 2 m/s 749 mmHg 46%
    23:00 +5°C° 0 mm 3 m/s 749 mmHg 45%

    Demain, 25 Janvier, Vendredi

    Heure Température Précipitation Vent Pression Humidité
    00:00 +5°C° 0 mm 3 m/s 750 mmHg 44%
    01:00 +6°C° 0 mm 2 m/s 750 mmHg 43%
    02:00 +6°C° 0 mm 2 m/s 750 mmHg 42%
    03:00 +5°C° 0 mm 2 m/s 750 mmHg 41%
    04:00 +5°C° 0 mm 2 m/s 750 mmHg 41%
    05:00 +5°C° 0 mm 2 m/s 750 mmHg 40%
    06:00 +5°C° 0 mm 2 m/s 750 mmHg 40%
    07:00 +7°C° 0 mm 1 m/s 751 mmHg 36%
    08:00 +8°C° 0 mm 1 m/s 751 mmHg 33%
    09:00 +9°C° 0 mm 1 m/s 751 mmHg 30%
    10:00 +10°C° 0 mm 1 m/s 752 mmHg 31%
    11:00 +10°C° 0 mm 2 m/s 752 mmHg 33%
    12:00 +11°C° 0 mm 3 m/s 752 mmHg 34%
    13:00 +11°C° 0 mm 3 m/s 752 mmHg 37%
    14:00 +11°C° 0 mm 3 m/s 752 mmHg 39%
    15:00 +10°C° 0 mm 3 m/s 752 mmHg 42%
    16:00 +9°C° 0 mm 3 m/s 753 mmHg 43%
    17:00 +8°C° 0 mm 2 m/s 753 mmHg 45%
    18:00 +7°C° 0 mm 1 m/s 754 mmHg 47%
    19:00 +7°C° 0 mm 1 m/s 755 mmHg 42%
    20:00 +7°C° 0 mm 1 m/s 755 mmHg 38%
    21:00 +7°C° 0 mm 1 m/s 756 mmHg 33%
    22:00 +7°C° 0 mm 1 m/s 756 mmHg 31%
    23:00 +7°C° 0 mm 1 m/s 756 mmHg 29%

    Après-demain, 26 Janvier, Samedi

    Heure Température Précipitation Vent Pression Humidité
    00:00 +7°C° 0 mm 1 m/s 756 mmHg 27%
    01:00 +7°C° 0 mm 1 m/s 756 mmHg 26%
    02:00 +6°C° 0 mm 1 m/s 757 mmHg 25%
    03:00 +6°C° 0 mm 1 m/s 757 mmHg 25%
    04:00 +7°C° 0 mm 1 m/s 757 mmHg 25%
    05:00 +7°C° 0 mm 1 m/s 757 mmHg 24%
    06:00 +7°C° 0 mm 1 m/s 757 mmHg 24%
    07:00 +8°C° 0 mm 1 m/s 757 mmHg 24%
    08:00 +9°C° 0 mm 1 m/s 757 mmHg 24%
    09:00 +11°C° 0 mm 1 m/s 758 mmHg 25%
    10:00 +12°C° 0 mm 1 m/s 757 mmHg 23%
    11:00 +13°C° 0 mm 2 m/s 757 mmHg 21%
    12:00 +14°C° 0 mm 2 m/s 757 mmHg 20%
    13:00 +14°C° 0 mm 2 m/s 757 mmHg 23%
    14:00 +13°C° 0 mm 3 m/s 757 mmHg 26%
    15:00 +12°C° 0 mm 3 m/s 756 mmHg 30%
    16:00 +11°C° 0 mm 3 m/s 756 mmHg 34%
    17:00 +9°C° 0 mm 2 m/s 756 mmHg 39%
    18:00 +8°C° 0 mm 2 m/s 756 mmHg 43%
    19:00 +8°C° 0 mm 2 m/s 756 mmHg 44%
    20:00 +7°C° 0 mm 2 m/s 756 mmHg 44%
    21:00 +8°C° 0 mm 1 m/s 756 mmHg 44%
    22:00 +8°C° 0 mm 1 m/s 755 mmHg 45%
    23:00 +8°C° 0 mm 1 m/s 755 mmHg 46%

    27 Janvier, Dimanche

    Heure Température Précipitation Vent Pression Humidité
    00:00 +8°C° 0 mm 1 m/s 755 mmHg 47%
    01:00 +8°C° 0 mm 1 m/s 754 mmHg 47%
    02:00 +8°C° 0 mm 1 m/s 754 mmHg 47%
    03:00 +8°C° 0 mm 1 m/s 753 mmHg 47%
    04:00 +8°C° 0 mm 1 m/s 753 mmHg 47%
    05:00 +8°C° 0 mm 1 m/s 753 mmHg 47%
    06:00 +6°C° 0 mm 2 m/s 752 mmHg 46%
    07:00 +8°C° 0 mm 2 m/s 752 mmHg 43%
    08:00 +9°C° 0 mm 2 m/s 751 mmHg 41%
    09:00 +10°C° 0 mm 2 m/s 751 mmHg 38%
    10:00 +11°C° 0 mm 3 m/s 750 mmHg 38%
    11:00 +13°C° 0 mm 4 m/s 750 mmHg 37%
    12:00 +14°C° 0 mm 5 m/s 749 mmHg 37%
    13:00 +14°C° 0 mm 6 m/s 749 mmHg 41%
    14:00 +14°C° 0 mm 7 m/s 748 mmHg 45%
    15:00 +13°C° 0 mm 8 m/s 748 mmHg 48%
    16:00 +11°C° 0 mm 8 m/s 747 mmHg 53%
    17:00 +9°C° 0 mm 8 m/s 747 mmHg 57%
    18:00 +8°C° 0 mm 7 m/s 747 mmHg 62%
    19:00 +6°C° 0 mm 7 m/s 747 mmHg 62%
    20:00 +6°C° 0 mm 7 m/s 747 mmHg 62%
    21:00 +5°C° 0 mm 7 m/s 747 mmHg 62%
    22:00 +5°C° 0 mm 6 m/s 746 mmHg 62%
    23:00 +5°C° 0 mm 6 m/s 746 mmHg 63%

    28 Janvier, Lundi

    Heure Température Précipitation Vent Pression Humidité
    00:00 +5°C° 0 mm 6 m/s 746 mmHg 64%
    01:00 +5°C° 0 mm 6 m/s 745 mmHg 63%
    02:00 +5°C° 0 mm 6 m/s 745 mmHg 63%
    03:00 +5°C° 0 mm 6 m/s 745 mmHg 62%
    04:00 +5°C° 0 mm 5 m/s 744 mmHg 61%
    05:00 +5°C° 0 mm 5 m/s 744 mmHg 59%
    06:00 +5°C° 0 mm 4 m/s 744 mmHg 57%
    07:00 +6°C° 0 mm 4 m/s 744 mmHg 53%
    08:00 +8°C° 0 mm 3 m/s 744 mmHg 49%
    09:00 +9°C° 0 mm 2 m/s 744 mmHg 45%
    10:00 +10°C° 0 mm 2 m/s 744 mmHg 41%
    11:00 +13°C° 0 mm 2 m/s 744 mmHg 37%
    12:00 +14°C° 0 mm 1 m/s 744 mmHg 33%
    13:00 +14°C° 0 mm 2 m/s 744 mmHg 35%
    14:00 +13°C° 0 mm 2 m/s 744 mmHg 37%
    15:00 +13°C° 0 mm 2 m/s 745 mmHg 40%
    16:00 +11°C° 0 mm 3 m/s 745 mmHg 46%
    17:00 +10°C° 0 mm 3 m/s 746 mmHg 52%
    18:00 +9°C° 0 mm 3 m/s 746 mmHg 58%
    19:00 +9°C° 0 mm 2 m/s 747 mmHg 53%
    20:00 +8°C° 0 mm 2 m/s 747 mmHg 48%
    21:00 +8°C° 0 mm 2 m/s 748 mmHg 43%
    22:00 +8°C° 0 mm 2 m/s 748 mmHg 40%
    23:00 +8°C° 0 mm 2 m/s 749 mmHg 37%

    29 Janvier, Mardi

    Heure Température Précipitation Vent Pression Humidité
    00:00 +8°C° 0 mm 2 m/s 749 mmHg 34%
    01:00 +8°C° 0 mm 3 m/s 749 mmHg 33%
    02:00 +8°C° 0 mm 3 m/s 750 mmHg 31%
    03:00 +8°C° 0 mm 3 m/s 750 mmHg 30%
    04:00 +7°C° 0 mm 3 m/s 750 mmHg 30%
    05:00 +7°C° 0 mm 3 m/s 751 mmHg 30%
    06:00 +5°C° 0 mm 3 m/s 751 mmHg 30%
    07:00 +7°C° 0 mm 2 m/s 752 mmHg 29%
    08:00 +9°C° 0 mm 2 m/s 753 mmHg 28%
    09:00 +11°C° 0 mm 1 m/s 753 mmHg 26%
    10:00 +12°C° 0 mm 2 m/s 753 mmHg 27%
    11:00 +13°C° 0 mm 2 m/s 753 mmHg 28%
    12:00 +12°C° 0 mm 3 m/s 753 mmHg 29%
    13:00 +12°C° 0 mm 3 m/s 753 mmHg 33%
    14:00 +12°C° 0 mm 3 m/s 753 mmHg 37%
    15:00 +11°C° 0 mm 4 m/s 753 mmHg 41%
    16:00 +10°C° 0 mm 3 m/s 753 mmHg 45%
    17:00 +9°C° 0 mm 2 m/s 754 mmHg 49%
    18:00 +9°C° 0 mm 1 m/s 754 mmHg 53%
    19:00 +8°C° 0 mm 1 m/s 755 mmHg 52%
    20:00 +7°C° 0 mm 2 m/s 755 mmHg 51%
    21:00 +7°C° 0 mm 2 m/s 756 mmHg 51%
    22:00 +7°C° 0 mm 2 m/s 756 mmHg 49%
    23:00 +6°C° 0 mm 2 m/s 756 mmHg 48%
    Voir plus